Tracking 29892 objects as of 21-Nov-2024
HD Live streaming from Space Station
objects crossing your sky now

COSMOS 2251 DEB

Track COSMOS 2251 DEB now!
10-day predictions


NORAD ID: 34861
Int'l Code: 1993-036ACF
Perigee: 641.6 km
Apogee: 656.3 km
Inclination: 74.0 °
Period: 97.6 minutes
Semi major axis: 7019 km
RCS: 0.0082 m2 (small)
Launch date: June 16, 1993
Source: Commonwealth of Independent States (former USSR) (CIS)
Launch site: PLESETSK MISSILE AND SPACE COMPLEX (PKMTR)

Note: This is SATELLITE DEBRIS
Your satellite tracking list
Your tracking list is empty




NASA's NSSDC Master Catalog

Two Line Element Set (TLE):
1 34861U 93036ACF 24325.85032558  .00025928  00000-0  37476-2 0  9990
2 34861  74.0214 104.5089 0010421 276.3960 235.9086 14.76050174823517
Source of the keplerian elements: AFSPC